Location: Dammartin
(48.9032°N, 1.6195°E)
Time: 12:34:35
(UTC+00:00)

CZ-4B DEB - Pass Details

Date: 03 February 2023
Orbit: 839 x 859 km, 99.1° (Epoch: 25 March)

Event Time Altitude Azimuth Distance (km) Brightness Sun altitude
Rises 17:46:43 0° 152° (SSE) 3,382 7.2 -9.0°
Reaches altitude 10° 17:49:04 10° 149° (SSE) 2,452 6.4 -9.4°
Maximum altitude 17:54:26 63° 69° (ENE) 942 4.2 -10.2°
Drops below altitude 10° 17:59:50 10° 350° (N) 2,477 6.6 -11.1°
Sets 18:02:14 0° 348° (NNW) 3,419 7.4 -11.5°
